Weather History for Eagle River, WI

Change the Weather History Date:

Thursday, August 14, 2014

  Actual Average Record
Temperature  
Mean Temperature 52 °F -  
Max Temperature 69 °F 72 °F 84 °F (2003)
Min Temperature 35 °F 51 °F 34 °F (2013)
Degree Days  
Heating Degree Days 13    
Growing Degree Days 2 (Base 50)    
Moisture  
Dew Point 41 °F    
Average Humidity 70    
Maximum Humidity 100    
Minimum Humidity 31    
Precipitation  
Precipitation 0.00 in - - ()
Sea Level Pressure  
Sea Level Pressure 30.12 in    
Wind  
Wind Speed 2 mph (NNW)    
Max Wind Speed 10 mph    
Max Gust Speed -    
Visibility 8 miles    
Events Fog    
Averages and records for this station are not official NWS values.
T = Trace of Precipitation, MM = Missing Value Source: NWS Daily Summary

Daily Weather History Graph

Daily Weather History Graph

Search for Another Location

Airport:

Trip Planner

Search our weather history database for the weather conditions in past years. The results will help you decide how hot, cold, wet, or windy it might be!

Date:

Astronomy

Aug. 14, 2014 Rise Set
Actual Time 5:55 AM CDT 8:07 PM CDT
Civil Twilight 5:22 AM CDT 8:39 PM CDT
Nautical Twilight 4:42 AM CDT 9:20 PM CDT
Astronomical Twilight 3:56 AM CDT 10:05 PM CDT
Moon 10:11 PM CDT (8/14) 10:49 AM CDT (8/14)
Length of Visible Light 15h 16m
Length of Day
14h 11m
Waning Gibbous, 79% of the Moon is Illuminated
Aug 14
Waning Gibbous
Aug 17
Last Quarter
Aug 25
New
Sep 2
First Quarter
Sep 8
Full

Hourly Weather History & Observations

Time (CDT) Temp. Dew Point Humidity Pressure Visibility Wind Dir Wind Speed Gust Speed Precip Events Conditions
12:15 AM 41.9 °F 41.9 °F 100% 30.15 in 5.0 mi Calm Calm - N/A   Clear
12:35 AM 41.5 °F 41.5 °F 100% 30.15 in 2.0 mi Calm Calm - N/A   Clear
12:55 AM 41.2 °F 41.2 °F 100% 30.15 in 1.5 mi Calm Calm - N/A   Mist
1:15 AM 39.7 °F 39.7 °F 100% 30.15 in 0.5 mi Calm Calm - N/A Fog Fog
1:35 AM 39.6 °F 39.6 °F 100% 30.15 in 10.0 mi Calm Calm - N/A   Clear
1:55 AM 39.7 °F 39.7 °F 100% 30.14 in 10.0 mi Calm Calm - N/A   Clear
2:15 AM 39.2 °F 39.2 °F 100% 30.14 in 10.0 mi Calm Calm - N/A   Clear
2:35 AM 38.8 °F 38.8 °F 100% 30.14 in 10.0 mi Calm Calm - N/A   Clear
2:55 AM 38.3 °F 38.3 °F 100% 30.14 in 7.0 mi Calm Calm - N/A   Clear
3:15 AM 37.4 °F 37.4 °F 100% 30.15 in 1.0 mi Calm Calm - N/A   Mostly Cloudy
3:35 AM 38.1 °F 38.1 °F 100% 30.15 in 1.2 mi Calm Calm - N/A   Overcast
3:55 AM 36.9 °F 36.9 °F 100% 30.15 in 0.5 mi Calm Calm - N/A Fog Fog
4:15 AM 37.2 °F 37.2 °F 100% 30.14 in 0.5 mi Calm Calm - N/A Fog Fog
4:35 AM 35.6 °F 35.6 °F 100% 30.14 in 0.5 mi Calm Calm - N/A Fog Fog
5:15 AM 36.9 °F 36.9 °F 100% 30.15 in 0.5 mi Calm Calm - N/A Fog Fog
5:35 AM 35.8 °F 35.8 °F 100% 30.16 in 4.0 mi Calm Calm - N/A   Scattered Clouds
5:55 AM 36.0 °F 36.0 °F 100% 30.16 in 10.0 mi Calm Calm - N/A   Clear
6:15 AM 35.6 °F 35.6 °F 100% 30.16 in 7.0 mi Calm Calm - N/A   Clear
6:35 AM 36.9 °F 36.9 °F 100% 30.17 in 10.0 mi Calm Calm - N/A   Clear
6:55 AM 37.6 °F 37.6 °F 100% 30.17 in 10.0 mi Calm Calm - N/A   Clear
7:15 AM 40.3 °F 40.3 °F 100% 30.17 in 10.0 mi Calm Calm - N/A   Clear
7:35 AM 43.9 °F 43.9 °F 100% 30.17 in 10.0 mi Calm Calm - N/A   Clear
7:55 AM 47.3 °F 47.3 °F 100% 30.17 in 10.0 mi Calm Calm - N/A   Clear
8:15 AM 51.4 °F 47.5 °F 86% 30.17 in 10.0 mi Calm Calm - N/A   Clear
8:35 AM 55.0 °F 44.4 °F 67% 30.17 in 10.0 mi North 4.6 mph - N/A   Clear
8:55 AM 56.3 °F 43.5 °F 62% 30.18 in 10.0 mi North 5.8 mph - N/A   Clear
9:15 AM 57.9 °F 43.7 °F 59% 30.18 in 10.0 mi North 3.5 mph - N/A   Clear
9:35 AM 59.2 °F 43.2 °F 55% 30.17 in 10.0 mi NNE 5.8 mph - N/A   Clear
9:55 AM 60.3 °F 41.2 °F 49% 30.17 in 10.0 mi North 4.6 mph - N/A   Clear
10:15 AM 60.8 °F 38.5 °F 44% 30.17 in 10.0 mi Calm Calm - N/A   Clear
10:35 AM 62.2 °F 39.0 °F 42% 30.17 in 10.0 mi NE 5.8 mph - N/A   Clear
10:55 AM 63.1 °F 37.4 °F 39% 30.17 in 10.0 mi NNE 9.2 mph - N/A   Clear
11:15 AM 63.0 °F 36.3 °F 37% 30.16 in 10.0 mi North 5.8 mph - N/A   Clear
11:35 AM 63.9 °F 37.8 °F 38% 30.15 in 10.0 mi NE 4.6 mph - N/A   Clear
11:55 AM 64.4 °F 37.4 °F 37% 30.15 in 10.0 mi WNW 6.9 mph - N/A   Clear
12:15 PM 65.7 °F 37.4 °F 35% 30.15 in 10.0 mi North 6.9 mph - N/A   Clear
12:35 PM 65.5 °F 37.0 °F 35% 30.14 in 10.0 mi NNW 6.9 mph - N/A   Clear
12:55 PM 66.9 °F 38.7 °F 35% 30.14 in 10.0 mi NNW 9.2 mph - N/A   Clear
1:15 PM 66.7 °F 35.4 °F 31% 30.13 in 10.0 mi North 5.8 mph - N/A   Clear
1:35 PM 67.3 °F 36.9 °F 33% 30.12 in 10.0 mi WNW 3.5 mph - N/A   Clear
1:55 PM 67.3 °F 38.3 °F 35% 30.12 in 10.0 mi WNW 4.6 mph - N/A   Clear
2:15 PM 67.5 °F 38.3 °F 34% 30.12 in 10.0 mi West 9.2 mph - N/A   Clear
2:35 PM 68.2 °F 37.8 °F 33% 30.11 in 10.0 mi NW 10.4 mph - N/A   Clear
2:55 PM 67.5 °F 36.1 °F 32% 30.10 in 10.0 mi Calm Calm - N/A   Clear
3:15 PM 68.5 °F 38.8 °F 34% 30.10 in 10.0 mi NNW 4.6 mph - N/A   Clear
3:35 PM 69.1 °F 40.8 °F 36% 30.10 in 10.0 mi West 4.6 mph - N/A   Clear
3:55 PM 68.5 °F 40.5 °F 36% 30.10 in 10.0 mi NNW 8.1 mph - N/A   Clear
4:15 PM 68.5 °F 38.1 °F 33% 30.10 in 10.0 mi WNW 6.9 mph - N/A   Clear
4:35 PM 68.5 °F 36.7 °F 31% 30.09 in 10.0 mi Calm Calm - N/A   Clear
4:55 PM 68.5 °F 40.3 °F 36% 30.09 in 10.0 mi NW 3.5 mph - N/A   Clear
5:35 PM 67.1 °F 41.5 °F 39% 30.08 in 10.0 mi NW 4.6 mph - N/A   Clear
5:55 PM 66.7 °F 42.8 °F 42% 30.07 in 10.0 mi NW 4.6 mph - N/A   Clear
6:15 PM 65.7 °F 43.5 °F 45% 30.07 in 10.0 mi NW 3.5 mph - N/A   Clear
6:35 PM 64.8 °F 46.2 °F 51% 30.07 in 10.0 mi NNW 4.6 mph - N/A   Clear
6:55 PM 64.2 °F 46.2 °F 52% 30.06 in 10.0 mi NNW 4.6 mph - N/A   Clear
7:15 PM 63.1 °F 47.1 °F 56% 30.06 in 10.0 mi North 4.6 mph - N/A   Clear
7:35 PM 62.1 °F 46.6 °F 57% 30.06 in 10.0 mi North 3.5 mph - N/A   Clear
7:55 PM 60.3 °F 46.2 °F 60% 30.06 in 10.0 mi North 3.5 mph - N/A   Clear
8:15 PM 57.0 °F 47.3 °F 70% 30.06 in 10.0 mi Calm Calm - N/A   Clear
8:35 PM 55.0 °F 47.8 °F 77% 30.06 in 10.0 mi Calm Calm - N/A   Clear
8:55 PM 54.1 °F 47.5 °F 78% 30.06 in 10.0 mi Calm Calm - N/A   Clear
9:15 PM 51.4 °F 45.7 °F 81% 30.06 in 10.0 mi Calm Calm - N/A   Clear
9:35 PM 49.3 °F 48.6 °F 97% 30.06 in 10.0 mi Calm Calm - N/A   Clear
9:55 PM 49.6 °F 49.1 °F 98% 30.06 in 10.0 mi Calm Calm - N/A   Clear
10:15 PM 48.2 °F 48.2 °F 100% 30.06 in 7.0 mi Calm Calm - N/A   Clear
10:35 PM 47.7 °F 47.7 °F 100% 30.06 in 1.2 mi Calm Calm - N/A   Mist
10:55 PM 45.9 °F 45.9 °F 100% 30.06 in 10.0 mi Calm Calm - N/A   Clear
11:15 PM 44.4 °F 44.4 °F 100% 30.06 in 0.2 mi Calm Calm - N/A Fog Fog
11:35 PM 45.0 °F 45.0 °F 100% 30.06 in 1.2 mi Calm Calm - N/A   Mostly Cloudy
11:55 PM 44.4 °F 44.4 °F 100% 30.05 in 0.5 mi Calm Calm - N/A Fog Fog